Location: *
(58.7167°N, 26.1833°E)
Time: 09:37:29
(UTC+00:00)

JB-3 - Pass Details

Date: 25 August 2019
Orbit: 526 x 591 km, 97.4° (Epoch: 15 September)

Event Time Altitude Azimuth Distance (km) Brightness Sun altitude
Rises 21:25:20 0° 16° (NNE) 2,705 8.9 -19.9°
Reaches altitude 10° 21:27:29 10° 18° (NNE) 1,802 7.8 -19.9°
Maximum altitude 21:31:22 73° 103° (ESE) 562 4.2 -20.0°
Enters shadow 21:31:50 63° 156° (SSE) 599 4.1 -20.1°
